Regional Weather Roundup
Issued by NWS Upton, NY

Current Version | Previous Version | Graphics & Text | Print | Product List | Glossary Off
Versions: 1 2 3 4 5 6 7 8 9 10 11 12 13 14 15 16 17 18 19 20 21 22 23 24 25 26 27 28 29 30 31 32 33 34 35 36 37 38 39 40 41 42 43 44 45 46 47 48 49 50
000 ASUS41 KOKX 211609 RWROKX Regional Weather Roundup National Weather Service New York NY 1100 AM EST SUN JAN 21 2018 Note: "FAIR" indicates few or no clouds below 12,000 feet with no significant weather and/or obstructions to visibility. NYZ071-072-176-178-NJZ106-104-211700- New York City Metro Area CITY SKY/WX TMP DP RH WIND PRES REMARKS Central Park FAIR 46 28 49 VRB6 30.21S Bronx Bot Gard N/A 48 28 46 NW3 30.18F Bronx Lehman C N/A 45 30 57 NW5 N/A LaGuardia Arpt PTSUNNY 46 29 51 NW9 30.19R Queens College N/A 46 30 53 NW9 N/A Kennedy Intl PTSUNNY 48 29 47 N9 30.19S Breezy Point N/A 43 N/A N/A W5 N/A Brooklyn Coll N/A 46 30 53 NW10 N/A Staten Island N/A 46 30 53 NW5 N/A Newark/Liberty PTSUNNY 49 29 46 NW9 30.19S Teterboro FAIR 47 30 51 NW12 30.19S $$ NYZ177-179-078>081-211700- Long Island New York CITY SKY/WX TMP DP RH WIND PRES REMARKS Jones Beach N/A 45 N/A N/A NW9 N/A Wantagh N/A 48 30 49 N6 N/A Matinecock Pt N/A 39 N/A N/A NE3 N/A Farmingdale FAIR 47 29 49 N10 30.18S MacArthur/ISP CLOUDY 49 30 48 N8 30.17S Shirley FAIR 48 30 49 N9 30.18S Mt Sinai Harb N/A N/A N/A N/A CALM N/A Westhampton FAIR 47 28 47 N7 30.18F East Hampton FAIR 42 29 58 N6 30.17F Southold N/A 41 30 65 NW5 N/A Montauk N/A 43 32 65 NW6 30.18F $$ NYZ052-065-067-211700- Hudson Valley CITY SKY/WX TMP DP RH WIND PRES REMARKS White Plains FAIR 42 28 57 VRB3 30.17S Larchmont Harb N/A 34 N/A N/A NE9 N/A WCI 26 Croton On Huds N/A 36 N/A N/A MISG N/A Somers N/A 39 28 65 W1 N/A Brewster N/A 41 30 65 N3 N/A Newburgh PTSUNNY 39 28 65 CALM 30.19R Montgomery FAIR 40 29 64 NE5 30.17R Otisville N/A 41 30 65 SW2 N/A Warwick N/A 41 30 65 W5 N/A Suffern N/A 41 30 65 NW5 N/A Poughkeepsie FAIR 39 28 64 CALM 30.18S Albany CLOUDY 39 29 67 W7 30.19S WCI 34 $$ NJZ001-105-106-008-010-013-015-019>022-104-211700- New Jersey CITY SKY/WX TMP DP RH WIND PRES REMARKS Newark/Liberty PTSUNNY 49 29 46 NW9 30.19S Teterboro FAIR 47 30 51 NW12 30.19S Caldwell FAIR 45 29 53 CALM 30.20R Somerville FAIR 48 33 56 VRB3 30.18S Linden FAIR 48 29 49 N8 30.19F Perth Amboy N/A 45 N/A N/A NW8 N/A Sussex FAIR 35 29 78 CALM 30.18S Andover N/A 43 29 57 VRB5 30.18F Trenton FAIR 48 33 56 W8 30.21R Millville PTSUNNY 52 38 58 N8 30.22R Atlantic City FAIR 54 38 54 NW12 30.21F Wrightstown FAIR 50 34 54 NW8 30.18S Toms River FAIR 49 33 54 NW9 30.21S Belmar FAIR 50 31 48 W9 30.20S $$ PAZ047>061-062-071-211700- Eastern Pennsylvania CITY SKY/WX TMP DP RH WIND PRES REMARKS Philadelphia CLOUDY 46 33 60 S5 30.23R Allentown CLOUDY 46 33 60 N3 30.21R Scranton PTSUNNY 33 28 81 SW3 30.18S $$ CTZ002-004>006-009-010-012-RIZ004-006-007-MAZ004-011-015-211700- Southern New England In CT CITY SKY/WX TMP DP RH WIND PRES REMARKS Bradley Intl FAIR 45 32 60 VRB3 30.17S Hartford FAIR 45 31 58 CALM 30.18R Danbury FAIR 40 31 70 CALM 30.18S Wtrbury/Oxford FAIR 39 29 67 NW3 30.17R Norwalk Harbor N/A 36 N/A N/A SW5 N/A WCI 32 Bridgeport FAIR 43 33 68 CALM 30.18S Meriden FAIR 41 29 62 W3 30.18S New Haven PTSUNNY 40 30 67 W5 30.17F Chester FAIR 45 30 57 N9 30.16S Groton FAIR 46 30 53 N7 30.16F Willimantic FAIR 44 31 60 CALM 30.17F In RI CITY SKY/WX TMP DP RH WIND PRES REMARKS Providence FAIR 47 31 53 NW6 30.16F Block Island FAIR 43 31 62 NW8 30.17F Westerly FAIR 46 32 58 NW6 30.17F In MA CITY SKY/WX TMP DP RH WIND PRES REMARKS Boston FAIR 45 31 58 W6 30.15S Worcester FAIR 41 26 55 VRB3 30.13R Westfield FAIR 43 30 60 NW7 30.15F Provincetown FAIR 43 32 65 MISG N/A Nantucket FAIR 44 31 60 NW9 30.14F $$ ANZ330-335-338-340-345-350-353-355-211700- Coastal Marine Observations STATION/POSITION TIME SKY/WX TEMP WIND PRES VSBY WAVE AIR SEA DIR/SP/G HT/PER (UTC) (F) (DEG/KT/KT) (MB) (MI) (FT/S) NY Harb Entrance 1550 40 39 300/ 4/ 6 1021.9 2/ 7 20 S Fire Island 1450 41 41 290/ 6/ 8 1022.1 3/ 7 15 E Barnegat Li 1530 42 N/A 3/ 7 Hudson Canyon 1550 48 49 330/ 10/ 12 1021.6 4/ 8 Kings Point 1536 44 33 40/ 3/ 4 1023.1 Execution Rocks NOT AVBL Western LI Sound NOT AVBL Central LI Sound 1530 36 270/ 4/ 4 N/A 0 Robbins Reef 1542 45 310/ 8/ 9 1022.9 $$ >>>>>>>>>>>>>>>>>>>>>>>>>>>> KEY <<<<<<<<<<<<<<<<<<<<<<<<<<< > < > SKY/WX - Sky Condition/Present Weather < > TMP - Temperature in Fahrenheit < > DP - Dew Point in Fahrenheit < > RH - Relative Humidity in Percent < > WIND - Direction (from) and Speed in MPH < > PRES - Mean Sea Level Pressure (inches of Hg) < > WCI - Wind Chill Index < > VSB - Visibility in Miles < > HX - Heat Index < > TC - Temperature in Celsius < > VRB - Varibale Wind Direction < > < >>>>>>>>>>>>>>>>>>>>>>>>>>>> KEY <<<<<<<<<<<<<<<<<<<<<<<<<<<

USA.gov is the U.S. government's official web portal to all federal, state and local government web resources and services.